Weather History for Plattsburgh, NY

Change the Weather History Date:

Friday, November 22, 2013

  Actual Average Record
Temperature  
Mean Temperature 38 °F 34 °F  
Max Temperature 43 °F 43 °F 67 °F (1953)
Min Temperature 32 °F 25 °F 6 °F (1972)
Degree Days  
Heating Degree Days 27 31  
Month to date heating degree days 596 588  
Since 1 July heating degree days 1372 1371  
Cooling Degree Days 0 0  
Month to date cooling degree days 0  
Year to date cooling degree days 346  
Moisture  
Dew Point 34 °F    
Average Humidity 85    
Maximum Humidity 100    
Minimum Humidity 69    
Precipitation  
Precipitation 0.05 in - 0.64 in (1962)
Month to date precipitation 0.98  
Year to date precipitation 29.68  
Sea Level Pressure  
Sea Level Pressure 30.04 in    
Wind  
Wind Speed 1 mph (SW)    
Max Wind Speed 13 mph    
Max Gust Speed 21 mph    
Visibility 9 miles    
Events Rain , Snow    
T = Trace of Precipitation, MM = Missing Value Source: NWS Daily Summary

Daily Weather History Graph

Daily Weather History Graph

Search for Another Location

Airport:

Trip Planner

Search our weather history database for the weather conditions in past years. The results will help you decide how hot, cold, wet, or windy it might be!

Date:

Astronomy

Nov. 22, 2013 Rise Set
Actual Time 7:00 AM EST 4:19 PM EST
Civil Twilight 6:27 AM EST 4:51 PM EST
Nautical Twilight 5:52 AM EST 5:27 PM EST
Astronomical Twilight 5:17 AM EST 6:02 PM EST
Moon 8:52 PM EST (11/22) 10:39 AM EST (11/22)
Length of Visible Light 10h 24m
Length of Day
9h 19m
Waning Gibbous, 78% of the Moon is Illuminated
Nov 22
Waning Gibbous
Nov 25
Last Quarter
Dec 2
New
Dec 9
First Quarter
Dec 17
Full

Hourly Weather History & Observations

Time (EST) Temp. Windchill Dew Point Humidity Pressure Visibility Wind Dir Wind Speed Gust Speed Precip Events Conditions
12:53 AM 32.0 °F - 26.1 °F 79% 30.31 in 10.0 mi Calm Calm - N/A   Overcast
1:53 AM 33.1 °F - 26.1 °F 75% 30.30 in 10.0 mi Calm Calm - N/A   Overcast
2:53 AM 33.1 °F - 27.0 °F 78% 30.27 in 10.0 mi Calm Calm - N/A   Overcast
3:53 AM 33.1 °F - 27.0 °F 78% 30.25 in 10.0 mi Calm Calm - N/A   Overcast
4:53 AM 33.1 °F - 27.0 °F 78% 30.23 in 10.0 mi Calm Calm - N/A   Overcast
5:53 AM 34.0 °F - 28.0 °F 79% 30.22 in 8.0 mi Calm Calm - 0.00 in Snow Light Snow
6:53 AM 32.0 °F - 30.9 °F 96% 30.21 in 8.0 mi Calm Calm - 0.02 in   Overcast
7:29 AM 33.8 °F 30.8 °F 30.2 °F 87% 30.18 in 10.0 mi SW 3.5 mph - 0.01 in Rain Light Rain
7:53 AM 33.1 °F 30.0 °F 32.0 °F 96% 30.18 in 8.0 mi West 3.5 mph - 0.02 in Rain Light Rain
8:53 AM 35.1 °F - 33.1 °F 92% 30.15 in 10.0 mi Calm Calm - 0.00 in   Overcast
9:53 AM 36.0 °F - 35.1 °F 97% 30.13 in 10.0 mi Calm Calm - N/A   Overcast
10:53 AM 37.0 °F - 35.1 °F 93% 30.10 in 10.0 mi Calm Calm - 0.00 in Rain Light Rain
11:53 AM 37.9 °F - 36.0 °F 93% 30.06 in 10.0 mi Calm Calm - 0.00 in   Overcast
12:53 PM 39.0 °F - 36.0 °F 89% 30.03 in 10.0 mi Calm Calm - N/A   Overcast
1:53 PM 39.0 °F - 37.0 °F 93% 30.01 in 10.0 mi Calm Calm - N/A   Overcast
2:22 PM 39.2 °F - 37.4 °F 93% 30.00 in 10.0 mi Calm Calm - N/A   Overcast
2:53 PM 39.0 °F - 36.0 °F 89% 29.99 in 10.0 mi Calm Calm - N/A   Overcast
3:07 PM 39.2 °F 37.0 °F 35.6 °F 87% 29.97 in 10.0 mi South 3.5 mph - N/A   Overcast
3:53 PM 39.0 °F - 37.0 °F 93% 29.96 in 10.0 mi Calm Calm - N/A   Overcast
4:53 PM 39.0 °F 36.8 °F 37.0 °F 93% 29.94 in 10.0 mi SSW 3.5 mph - N/A   Overcast
5:53 PM 39.0 °F 36.8 °F 37.0 °F 93% 29.90 in 10.0 mi SSW 3.5 mph - N/A   Overcast
6:53 PM 37.9 °F - 37.0 °F 97% 29.86 in 10.0 mi Calm Calm - 0.00 in   Overcast
7:53 PM 37.9 °F - 37.9 °F 100% 29.84 in 7.0 mi Calm Calm - 0.00 in   Overcast
8:44 PM 37.4 °F 34.9 °F 37.4 °F 100% 29.81 in 6.0 mi South 3.5 mph - 0.01 in Rain Light Rain
8:53 PM 37.9 °F - 37.9 °F 100% 29.82 in 6.0 mi Calm Calm - 0.01 in Rain Light Rain
9:53 PM 41.0 °F - 39.0 °F 93% 29.82 in 10.0 mi Calm Calm - 0.00 in   Overcast
10:53 PM 39.9 °F - 39.0 °F 97% 29.83 in 10.0 mi Calm Calm - 0.00 in   Overcast
11:53 PM 39.9 °F 34.5 °F 33.1 °F 77% 29.86 in 10.0 mi NW 8.1 mph - N/A   Overcast